FW7729 Weather Reports


Display with metric or nautical units.
time (UTC)temp
F
wind
direction
speed
MPH
gust
MPH
rain 1hr
in
rain 24hr
in
rain mn
in
humidity
%
barometer
mb
20260902052807 77 236 0.0 0.0 0.00 0.00 0.00 95 1015.9
20260902052233 77 236 0.0 0.0 0.00 0.00 0.00 95 1015.9
20260902051129 77 236 0.0 0.0 0.00 0.00 0.00 94 1015.8
20260902050025 78 237 0.0 0.0 0.00 0.00 0.00 93 1015.8
20260902045450 78 236 0.0 0.0 0.00 0.00 0.00 93 1015.8
20260902044917 79 236 0.0 0.0 0.00 0.00 0.00 92 1015.7
20260902043812 80 236 0.0 0.0 0.00 0.00 0.00 89 1015.5
20260902042708 80 236 0.0 0.0 0.00 0.00 0.00 90 1015.5
20260902042135 80 236 0.0 0.0 0.00 0.00 0.00 90 1015.4
20260902041600 79 236 0.0 0.0 0.00 0.00 0.00 89 1015.3
20260902041026 79 236 0.0 0.0 0.00 0.00 0.00 90 1015.2
20260902040452 79 236 0.0 0.0 0.00 0.00 0.00 92 1015.1
20260902035918 78 236 0.0 0.0 0.00 0.00 0.00 93 1015.0
20260902035344 78 235 0.0 0.0 0.00 0.00 0.00 95 1015.0
20260902033710 78 235 0.0 0.0 0.00 0.00 0.00 96 1015.0
20260902033136 78 235 0.0 0.0 0.00 0.00 0.00 96 1014.9
20260902032602 78 235 0.0 0.0 0.00 0.00 0.00 96 1014.9
20260902030358 78 235 0.0 0.0 0.00 0.00 0.00 97 1014.5
20260902025824 79 235 0.0 0.0 0.00 0.00 0.00 97 1014.4
20260902023050 80 235 0.0 0.0 0.00 0.00 0.00 94 1014.7
20260902021946 80 235 0.0 0.0 0.00 0.00 0.00 95 1014.8
20260902021412 80 235 0.0 0.0 0.00 0.00 0.00 95 1014.7
20260902020838 80 235 0.0 0.0 0.00 0.00 0.00 95 1014.7
20260902020303 81 235 0.0 0.0 0.00 0.00 0.00 96 1014.6
20260902014629 80 235 0.0 0.0 0.00 0.00 0.00 94 1014.3
20260902011325 81 235 0.0 0.0 0.00 0.00 0.00 96 1014.2
20260902010752 82 235 0.0 0.0 0.00 0.00 0.00 95 1014.1
20260902010217 82 235 0.0 0.0 0.00 0.00 0.00 95 1014.0
20260902005643 82 235 0.0 0.0 0.00 0.00 0.00 94 1013.8
20260902005109 82 235 0.0 0.0 0.00 0.00 0.00 94 1013.9
20260902004535 82 235 0.0 0.0 0.00 0.00 0.00 94 1013.7
20260902004000 82 235 0.0 0.0 0.00 0.00 0.00 94 1013.6
20260902003426 82 235 0.0 0.0 0.00 0.00 0.00 93 1013.4
20260902002852 83 235 0.0 0.0 0.00 0.00 0.00 92 1013.4
20260902002318 83 235 0.0 0.0 0.00 0.00 0.00 92 1013.3
20260902001744 83 235 0.0 0.0 0.00 0.00 0.00 91 1013.2
20260902001210 84 235 0.0 0.0 0.00 0.00 0.00 91 1013.1
20260902000636 84 235 0.0 0.0 0.00 0.00 0.00 91 1013.0
20260901235528 85 235 0.0 0.0 0.00 0.00 0.00 89 1012.9
20260901234954 86 235 0.0 0.0 0.00 0.00 0.00 88 1012.9
20260901234420 86 235 0.0 0.0 0.00 0.00 0.00 88 1012.9
20260901233846 86 235 0.0 0.0 0.00 0.00 0.00 87 1013.0
20260901232742 87 235 0.0 0.0 0.00 0.00 0.00 85 1013.1
20260901232208 87 235 0.0 0.0 0.00 0.00 0.00 84 1013.1
20260901231634 87 235 0.0 0.0 0.00 0.00 0.00 83 1013.2
20260901225430 88 235 0.0 0.0 0.00 0.00 0.00 82 1013.3
20260901224856 88 235 0.0 0.0 0.00 0.00 0.00 82 1013.2
20260901224321 88 235 0.0 0.0 0.00 0.00 0.00 81 1013.2
20260901223217 88 235 0.0 0.0 0.00 0.00 0.00 79 1013.2
20260901222113 89 235 0.0 0.0 0.00 0.00 0.00 78 1013.3
20260901221008 89 235 0.0 0.0 0.00 0.00 0.00 78 1013.3
20260901220434 90 235 0.0 0.0 0.00 0.00 0.00 77 1013.2
20260901214800 90 235 0.0 0.0 0.00 0.00 0.00 75 1013.5
20260901212556 91 235 0.0 0.0 0.00 0.00 0.00 74 1013.4
20260901211452 91 235 2.0 0.0 0.00 0.00 0.00 74 1013.4
20260901210348 90 231 1.0 0.0 0.00 0.00 0.00 76 1013.4
20260901205814 90 231 0.0 0.0 0.00 0.00 0.00 76 1013.4
20260901205240 90 231 0.0 0.0 0.00 0.00 0.00 76 1013.5
20260901203606 91 231 1.0 0.0 0.00 0.00 0.00 73 1013.5
20260901203032 90 231 1.0 0.0 0.00 0.00 0.00 73 1013.5
20260901201928 90 233 0.0 0.0 0.00 0.00 0.00 75 1013.7
20260901200824 90 233 0.0 0.0 0.00 0.00 0.00 76 1013.8
20260901195150 90 332 1.0 0.0 0.00 0.00 0.00 77 1014.0
20260901194046 89 299 1.0 0.0 0.00 0.00 0.00 78 1014.1
20260901193512 89 295 0.0 0.0 0.00 0.00 0.00 79 1014.2
20260901192938 89 295 0.0 0.0 0.00 0.00 0.00 79 1014.3
20260901192404 89 295 0.0 0.0 0.00 0.00 0.00 79 1014.4
20260901191300 89 295 1.0 0.0 0.00 0.00 0.00 77 1014.6
20260901190156 90 297 0.0 0.0 0.00 0.00 0.00 76 1014.9
20260901185622 90 297 0.0 0.0 0.00 0.00 0.00 75 1014.9
20260901185048 90 287 0.0 0.0 0.00 0.00 0.00 75 1015.0
20260901183413 90 268 1.0 0.0 0.00 0.00 0.00 75 1014.9
20260901182309 90 264 1.0 0.0 0.00 0.00 0.00 75 1014.7
20260901181735 89 270 0.0 0.0 0.00 0.00 0.00 75 1014.6
20260901175531 89 270 1.0 0.0 0.00 0.00 0.00 77 1014.7
20260901174957 89 273 1.0 0.0 0.00 0.00 0.00 77 1014.7
20260901174423 89 272 1.0 0.0 0.00 0.00 0.00 78 1014.8
20260901173319 89 270 0.0 0.0 0.00 0.00 0.00 79 1014.7
20260901172215 89 270 0.0 0.0 0.00 0.00 0.00 77 1014.7
20260901170010 89 257 1.0 0.0 0.00 0.00 0.00 78 1015.0
20260901165436 89 265 0.0 0.0 0.00 0.00 0.00 78 1015.1
20260901164332 88 274 0.0 0.0 0.00 0.00 0.00 80 1015.5
20260901163757 88 274 0.0 0.0 0.00 0.00 0.00 80 1015.3
20260901163224 88 274 0.0 0.0 0.00 0.00 0.00 80 1015.4
20260901162649 88 274 0.0 0.0 0.00 0.00 0.00 80 1015.4
20260901162115 88 274 0.0 0.0 0.00 0.00 0.00 80 1015.5
20260901161541 89 274 1.0 0.0 0.00 0.00 0.00 78 1015.5
20260901155907 88 215 1.0 0.0 0.00 0.00 0.00 81 1015.6
20260901154803 88 212 1.0 0.0 0.00 0.00 0.00 82 1015.6
20260901154229 87 212 1.0 0.0 0.00 0.00 0.00 82 1015.8
20260901153655 87 212 1.0 0.0 0.00 0.00 0.00 82 1015.9
20260901153121 87 212 1.0 0.0 0.00 0.00 0.00 82 1016.0
20260901152547 86 212 0.0 0.0 0.00 0.00 0.00 84 1016.0
20260901151443 85 170 0.0 0.0 0.00 0.00 0.00 84 1016.2
20260901150909 85 170 0.0 0.0 0.00 0.00 0.00 86 1016.2
20260901145805 84 170 0.0 0.0 0.00 0.00 0.00 88 1016.3
20260901145230 84 170 0.0 0.0 0.00 0.00 0.00 87 1016.2
20260901144657 84 170 0.0 0.0 0.00 0.00 0.00 87 1016.2
20260901143552 83 170 0.0 0.0 0.00 0.00 0.00 88 1016.3
20260901143018 83 170 0.0 0.0 0.00 0.00 0.00 89 1016.2
20260901142444 82 170 0.0 0.0 0.00 0.00 0.00 91 1016.2
20260901141910 82 170 0.0 0.0 0.00 0.00 0.00 91 1016.3
20260901141336 82 170 0.0 0.0 0.00 0.00 0.00 92 1016.3
20260901140802 82 170 0.0 0.0 0.00 0.00 0.00 92 1016.4
20260901140228 82 169 0.0 0.0 0.00 0.00 0.00 92 1016.3
20260901135654 81 170 0.0 0.0 0.00 0.00 0.00 91 1016.5
20260901134550 81 80 0.0 0.0 0.00 0.00 0.00 94 1016.3
20260901133446 80 80 0.0 0.0 0.00 0.00 0.00 96 1016.3
20260901132912 79 80 0.0 0.0 0.00 0.00 0.00 97 1016.3
20260901131808 78 80 0.0 0.0 0.00 0.00 0.00 10 1016.4
20260901131234 77 80 0.0 0.0 0.00 0.00 0.00 10 1016.5
20260901130700 76 80 0.0 0.0 0.00 0.00 0.00 10 1016.7
20260901130126 76 80 0.0 0.0 0.00 0.00 0.00 10 1016.7
20260901125552 76 80 0.0 0.0 0.00 0.00 0.00 10 1016.7
20260901125018 76 81 0.0 0.0 0.00 0.00 0.00 10 1016.7
20260901124444 75 80 0.0 0.0 0.00 0.00 0.00 10 1016.7
20260901123910 75 80 0.0 0.0 0.00 0.00 0.00 10 1016.8
20260901123335 75 80 0.0 0.0 0.00 0.00 0.00 10 1016.9
20260901122231 75 80 0.0 0.0 0.00 0.00 0.00 10 1016.9
20260901121658 75 80 0.0 0.0 0.00 0.00 0.00 10 1016.9
20260901121123 75 80 0.0 0.0 0.00 0.00 0.00 10 1016.8
20260901114919 75 80 0.0 0.0 0.00 0.00 0.00 10 1016.5
20260901113815 75 80 0.0 0.0 0.00 0.00 0.00 10 1016.3
20260901113241 75 80 0.0 0.0 0.00 0.00 0.00 10 1016.3
20260901112707 75 80 0.0 0.0 0.00 0.00 0.00 10 1016.1
20260901111603 75 80 0.0 0.0 0.00 0.00 0.00 10 1016.2
20260901111029 74 80 0.0 0.0 0.00 0.00 0.00 10 1016.2
20260901110455 75 80 0.0 0.0 0.00 0.00 0.00 10 1016.3
20260901105921 75 80 0.0 0.0 0.00 0.00 0.00 10 1016.1
20260901104817 74 80 0.0 0.0 0.00 0.00 0.00 10 1016.2
20260901104243 74 80 0.0 0.0 0.00 0.00 0.00 10 1016.2
20260901103709 74 81 0.0 0.0 0.00 0.00 0.00 10 1016.0
20260901103135 74 80 0.0 0.0 0.00 0.00 0.00 10 1016.0
20260901102031 75 80 0.0 0.0 0.00 0.00 0.00 10 1015.9
20260901095257 74 80 0.0 0.0 0.00 0.00 0.00 10 1016.0
20260901094723 74 80 0.0 0.0 0.00 0.00 0.00 10 1015.9
20260901093619 75 80 0.0 0.0 0.00 0.00 0.00 10 1015.9
20260901092515 75 80 0.0 0.0 0.00 0.00 0.00 10 1015.9
20260901085210 75 80 0.0 0.0 0.00 0.00 0.00 10 1016.1
20260901084106 75 80 0.0 0.0 0.00 0.00 0.00 10 1016.1
20260901083532 75 80 0.0 0.0 0.00 0.00 0.00 10 1016.2
20260901082958 75 80 0.0 0.0 0.00 0.00 0.00 10 1016.2
20260901082424 75 80 0.0 0.0 0.00 0.00 0.00 10 1016.1
20260901081850 75 80 0.0 0.0 0.00 0.00 0.00 10 1016.1
20260901081316 75 80 0.0 0.0 0.00 0.00 0.00 10 1016.1
20260901075642 75 80 0.0 0.0 0.00 0.00 0.00 10 1016.0
20260901075108 75 80 0.0 0.0 0.00 0.00 0.00 10 1016.1
20260901074534 75 80 0.0 0.0 0.00 0.00 0.00 10 1016.1
20260901072330 74 80 0.0 0.0 0.00 0.00 0.00 10 1016.4
20260901071226 74 80 0.0 0.0 0.00 0.00 0.00 10 1016.4
20260901070652 74 80 0.0 0.0 0.00 0.00 0.00 10 1016.4
20260901070118 74 80 0.0 0.0 0.00 0.00 0.00 10 1016.5
20260901065013 74 80 0.0 0.0 0.00 0.00 0.00 10 1016.6
20260901064440 74 80 0.0 0.0 0.00 0.00 0.00 10 1016.6
20260901063906 74 80 0.0 0.0 0.00 0.00 0.00 10 1016.7
20260901062801 74 80 0.0 0.0 0.00 0.00 0.00 10 1016.9
20260901062227 74 80 0.0 0.0 0.00 0.00 0.00 10 1016.8
20260901061653 74 80 0.0 0.0 0.00 0.00 0.00 10 1016.9
20260901060549 74 80 0.0 0.0 0.00 0.00 0.00 10 1016.7
20260901060015 74 80 0.0 0.0 0.00 0.00 0.00 10 1016.8
20260901055441 74 80 0.0 0.0 0.00 0.00 0.00 10 1016.7
20260901054337 74 80 0.0 0.0 0.00 0.00 0.00 10 1017.0
20260901053803 74 80 0.0 0.0 0.00 0.00 0.00 10 1017.1